Long Island Mac Arthur Airport Islip US
ICAO: KISP
IATA: ISP
Category: Medium
Scheduled Services: Yes

Elevation: 99 ft
TransAlt. 18000 ft.

Airport Communications:
NEW YORK APP/DEP:118
ATIS:128.45
CLNC DEL:121.85
CTAF:119.3
GND:135.3
GUARD OPS:45
NEW YORK RDO:122.6
TWR:119.3
UNICOM:122.95

KISP Zoom In..

Runways:

(A) RW 06 length 7006 ft width 150 ft
ILS 108.30 / hdg 59

(B) RW 10 length 5034 ft width 150 ft
---- / hdg 104

(C) RW 15L length 3175 ft width 75 ft
---- / hdg 149

(D) RW 15R length 5186 ft width 150 ft
---- / hdg 149

(E) RW 24 length 7006 ft width 150 ft
ILS 108.30 / hdg 239

(F) RW 28 length 5034 ft width 150 ft
---- / hdg 284

(G) RW 33L length 5186 ft width 150 ft
---- / hdg 329

(H) RW 33R length 3175 ft width 75 ft
---- / hdg 329

Location; KISP
Day. 01 / Time. 16.56 Zulu
* Altimeter: 29.54
* Temperature: 12° c. 53.6°f.
* Wind from: 220° Speed 17 kn with Gusts up to 25 kn.
Dewpoint: 06° c.
Visibility: 10 Statute Miles.
Clouds: Scattered 3000 ft.
Clouds: Broken 6000 ft.
Clouds: Broken 8500 ft.

KISP 011656Z 22017G25KT 10SM SCT030 BKN060 BKN085 12/06 A2954 RMK AO2 PK WND 22026/1625 SLP003 T01170056

Going to: --> -->


Wind From 220°
Speed 17 kn.

 
 
jpsmedia worldairports.se 2020   terms of use